Regional Weather Roundup
Issued by NWS Albany, NY

Home | Current Version | Previous Version | Text Only | Print | Product List | Glossary On
Versions: 1 2 3 4 5 6 7 8 9 10 11 12 13 14 15 16 17 18 19 20 21 22 23 24 25 26 27
000
ASUS41 KALY 250910
RWRALY

NEW YORK STATE HOURLY WEATHER ROUNDUP
NATIONAL WEATHER SERVICE ALBANY NY
500 AM EDT TUE APR 25 2017

NOTE: "FAIR" INDICATES FEW OR NO CLOUDS BELOW 12,000 FEET WITH NO
SIGNIFICANT WEATHER AND/OR NO OBSTRUCTIONS TO VISIBILITY.

NYZ032-033-038>043-046>054-057>066-NYZ062>081-082-084-251000-
EAST


CITY           SKY/WX    TMP DP  RH WIND       PRES   REMARKS
ALBANY         LGT RAIN  46  29  51 N6        30.16R
GLENS FALLS    PTCLDY    37  28  70 NE5       30.17F WCI  33
POUGHKEEPSIE   CLOUDY    49  43  80 CALM      30.11F
NEWBURGH       MOCLDY    50  45  81 NE8       30.12F
MONTGOMERY     LGT RAIN  50  42  74 NE7       30.11S
WHITE PLAINS   LGT RAIN  50  47  89 NE14G22   30.09S FOG
ISLIP          LGT RAIN  50  49  96 NE13      30.08S
NEW YORK CITY  CLOUDY    50  47  89 NE21      30.08R
CENTRAL PARK   CLOUDY    50  48  93 E8G25     30.10S
$$

NYZ005>009-017-018-044>046-055-056-251000-
CENTRAL


CITY           SKY/WX    TMP DP  RH WIND       PRES   REMARKS
FULTON         CLOUDY    54  38  54 VRB5      30.05R
SYRACUSE       LGT RAIN  52  39  61 E10       30.05R
ROME           CLOUDY    49  39  68 E8        30.10S
ELMIRA         CLOUDY    56  35  45 E6        30.01S
BINGHAMTON     CLOUDY    52  30  43 SE13      30.03S
MONTICELLO     CLOUDY    48  34  57 E15G21    30.11R
$$

NYZ026>034-041>043-087-251000-
NORTH


CITY           SKY/WX    TMP DP  RH WIND       PRES   REMARKS
WATERTOWN      CLOUDY    38  33  82 NE12      30.09R WCI  30
FORT DRUM      NOT AVBL
OGDENSBURG     FAIR      40  25  55 NE7       30.15S WCI  35
MASSENA        CLEAR     39  22  50 NE16      30.20R WCI  30
SARANAC LAKE   CLOUDY    28  25  88 CALM      30.14S
PLATTSBURGH    MOCLDY    30  25  81 CALM      30.22S
$$

NYZ001>004-010>016-019>021-085-251000-
WEST


CITY           SKY/WX    TMP DP  RH WIND       PRES   REMARKS
NIAGARA FALLS  CLOUDY    46  36  68 E8        29.97F
BUFFALO        CLOUDY    50  39  66 NE7       29.97F
DUNKIRK        LGT RAIN  50  46  86 NW5       29.94F
JAMESTOWN      CLOUDY    52  37  58 SE6       29.94R
WELLSVILLE     CLOUDY    52  36  54 SE8       29.99F
ROCHESTER      CLOUDY    48  39  71 E6        30.02S
PENN YAN       CLOUDY    49  42  77 CALM      30.02S
$$

             KEY
       WCI = WIND CHILL INDEX
       VSB = VISIBILITY
       HX  = HEAT INDEX
$$




USA.gov is the U.S. government's official web portal to all federal, state and local government web resources and services.